Weather History for Sedalia, MO

Change the Weather History Date:

Sunday, March 10, 2013

  Actual Average Record
Temperature  
Mean Temperature 45 °F 44 °F  
Max Temperature 58 °F 54 °F 79 °F (1955)
Min Temperature 32 °F 34 °F 8 °F (1998)
Degree Days  
Heating Degree Days 20 21  
Month to date heating degree days 293 226  
Since 1 July heating degree days 3731 3843  
Cooling Degree Days 0 0  
Month to date cooling degree days 0 0  
Year to date cooling degree days 1 0  
Moisture  
Dew Point 46 °F    
Average Humidity 87    
Maximum Humidity 93    
Minimum Humidity 80    
Precipitation  
Precipitation 0.71 in 0.09 in 0.71 in (2013)
Month to date precipitation 1.36 0.82  
Year to date precipitation 6.63 4.42  
Sea Level Pressure  
Sea Level Pressure 29.70 in    
Wind  
Wind Speed 13 mph (SSW)    
Max Wind Speed 22 mph    
Max Gust Speed 51 mph    
Visibility 7 miles    
Events Rain    
T = Trace of Precipitation, MM = Missing Value Source: NWS Daily Summary

Daily Weather History Graph

Daily Weather History Graph

Search for Another Location

Airport:

Trip Planner

Search our weather history database for the weather conditions in past years. The results will help you decide how hot, cold, wet, or windy it might be!

Date:

Astronomy

Mar. 10, 2013 Rise Set
Actual Time 7:31 AM CDT 7:15 PM CDT
Civil Twilight 7:04 AM CDT 7:41 PM CDT
Nautical Twilight 6:33 AM CDT 8:12 PM CDT
Astronomical Twilight 6:03 AM CDT 8:43 PM CDT
Moon 6:31 AM CDT (3/10) 6:23 PM CDT (3/10)
Length of Visible Light 12h 36m
Length of Day
11h 43m
Waning Crescent, 2% of the Moon is Illuminated
Mar 10
Waning Crescent
Mar 11
New
Mar 19
First Quarter
Mar 27
Full
Apr 2
Last Quarter

Hourly Weather History & Observations

Time (CDT) Temp. Windchill Dew Point Humidity Pressure Visibility Wind Dir Wind Speed Gust Speed Precip Events Conditions
12:06 AM 55.4 °F - 53.6 °F 94% 29.71 in 3.0 mi South 17.3 mph - 0.04 in Rain Rain
12:08 AM 55.4 °F - 53.6 °F 94% 29.72 in 3.0 mi South 16.1 mph - 0.05 in Rain Rain
12:17 AM 55.4 °F - 53.6 °F 94% 29.71 in 4.0 mi South 15.0 mph 23.0 mph 0.07 in Rain Rain
12:36 AM 55.4 °F - 53.6 °F 94% 29.73 in 2.5 mi SSW 8.1 mph - 0.17 in Rain Heavy Rain
12:44 AM 55.4 °F - 53.6 °F 94% 29.72 in 1.8 mi West 4.6 mph - 0.23 in Rain Heavy Rain
12:53 AM 55.0 °F - 53.1 °F 93% 29.68 in 2.0 mi ESE 10.4 mph - 0.28 in Rain Rain
12:58 AM 55.4 °F - 53.6 °F 94% 29.69 in 3.0 mi SE 10.4 mph - 0.00 in Rain Light Rain
1:06 AM 55.4 °F - 53.6 °F 94% 29.67 in 6.0 mi SE 12.7 mph - 0.00 in Rain Light Rain
1:16 AM 55.4 °F - 51.8 °F 88% 29.65 in 7.0 mi SE 12.7 mph - 0.00 in   Scattered Clouds
1:34 AM 55.4 °F - 51.8 °F 88% 29.64 in 8.0 mi SE 12.7 mph - 0.00 in   Mostly Cloudy
1:53 AM 55.0 °F - 52.0 °F 89% 29.64 in 7.0 mi SSE 12.7 mph - 0.00 in   Scattered Clouds
3:40 AM 55.4 °F - 53.6 °F 94% 29.64 in 8.0 mi South 16.1 mph - N/A   Mostly Cloudy
3:53 AM 55.9 °F - 53.1 °F 90% 29.62 in 8.0 mi South 12.7 mph - N/A   Overcast
4:53 AM 55.9 °F - 53.1 °F 90% 29.58 in 9.0 mi South 9.2 mph - N/A   Mostly Cloudy
5:53 AM 57.0 °F - 54.0 °F 89% 29.65 in 10.0 mi SSW 11.5 mph - N/A   Mostly Cloudy
7:53 AM 52.0 °F - 46.9 °F 83% 29.74 in 6.0 mi SW 15.0 mph 50.6 mph 0.11 in Rain Light Rain
8:53 AM 51.1 °F - 48.0 °F 89% 29.72 in 10.0 mi South 10.4 mph - 0.07 in Rain Light Rain
9:53 AM 50.0 °F - 48.0 °F 93% 29.74 in 5.0 mi South 10.4 mph - 0.05 in Rain Light Rain
10:53 AM 50.0 °F - 46.9 °F 89% 29.69 in 6.0 mi SE 9.2 mph - 0.07 in Rain Light Rain
11:07 AM 50.0 °F - 46.4 °F 87% 29.66 in 2.5 mi ESE 12.7 mph - 0.07 in Rain Rain
11:18 AM 50.0 °F - 46.4 °F 87% 29.67 in 5.0 mi SE 12.7 mph - 0.09 in Rain Light Rain
11:30 AM 50.0 °F - 48.2 °F 94% 29.69 in 10.0 mi South 9.2 mph - 0.10 in Rain Light Rain
11:53 AM 50.0 °F - 48.0 °F 93% 29.70 in 10.0 mi South 8.1 mph - 0.10 in Rain Light Rain
12:53 PM 50.0 °F - 48.0 °F 93% 29.66 in 9.0 mi SSE 9.2 mph - 0.02 in   Overcast
1:53 PM 53.1 °F - 50.0 °F 89% 29.63 in 10.0 mi South 10.4 mph - 0.00 in   Overcast
2:45 PM 53.6 °F - 48.2 °F 82% 29.62 in 10.0 mi South 16.1 mph - N/A   Overcast
2:53 PM 54.0 °F - 48.0 °F 80% 29.62 in 10.0 mi South 13.8 mph - N/A   Overcast
3:28 PM 55.4 °F - 48.2 °F 77% 29.62 in 10.0 mi SSW 11.5 mph - N/A   Overcast
3:53 PM 52.0 °F - 48.0 °F 86% 29.64 in 2.5 mi WSW 13.8 mph - 0.03 in Rain Rain
4:01 PM 51.8 °F - 48.2 °F 88% 29.65 in 8.0 mi WSW 10.4 mph 21.9 mph 0.00 in Rain Light Rain
4:21 PM 50.0 °F - 46.4 °F 87% 29.66 in 7.0 mi West 17.3 mph 27.6 mph 0.00 in   Overcast
4:34 PM 48.2 °F - 44.6 °F 87% 29.66 in 7.0 mi West 18.4 mph 26.5 mph 0.00 in   Overcast
4:53 PM 48.0 °F - 43.0 °F 83% 29.66 in 8.0 mi West 13.8 mph 25.3 mph 0.00 in   Overcast
5:37 PM 44.6 °F 36.4 °F 41.0 °F 87% 29.69 in 7.0 mi West 20.7 mph 26.5 mph N/A   Overcast
5:39 PM 42.8 °F 34.5 °F 41.0 °F 93% 29.70 in 7.0 mi West 18.4 mph 26.5 mph N/A   Overcast
5:53 PM 42.1 °F 34.2 °F 39.0 °F 89% 29.71 in 6.0 mi WNW 16.1 mph - N/A   Overcast
6:44 PM 39.2 °F 29.6 °F 35.6 °F 87% 29.74 in 10.0 mi WNW 19.6 mph 26.5 mph N/A   Overcast
6:53 PM 39.9 °F 30.8 °F 36.0 °F 86% 29.75 in 10.0 mi WNW 18.4 mph 27.6 mph N/A   Overcast
7:53 PM 37.9 °F 28.5 °F 34.0 °F 86% 29.78 in 10.0 mi WNW 17.3 mph - N/A   Overcast
8:53 PM 35.1 °F 25.2 °F 32.0 °F 89% 29.81 in 6.0 mi WNW 16.1 mph 23.0 mph N/A   Overcast
9:53 PM 34.0 °F 23.8 °F 30.0 °F 85% 29.83 in 10.0 mi West 16.1 mph 23.0 mph N/A   Overcast
10:53 PM 33.1 °F 22.6 °F 28.9 °F 85% 29.85 in 10.0 mi West 16.1 mph - N/A   Overcast
11:53 PM 33.1 °F 21.9 °F 28.0 °F 82% 29.86 in 10.0 mi West 18.4 mph 23.0 mph N/A   Overcast
12:53 AM 32.0 °F 22.1 °F 28.0 °F 85% 29.86 in 6.0 mi WNW 13.8 mph - N/A   Overcast